This is the latest recevied weather packets stored in our database for station/object 4S6DRJ-13. If no packets are shown the sender has not sent any weather packets the latest 10 day(s).
| Time | Temp. | Humidity | Pressure | Rain* | Wind** | Luminosity | Snow |
|---|---|---|---|---|---|---|---|
| 1788018237 | 28.33° C | 82% | 1010.8 hPa | 0 mm | 1.34 m/s, 252° | 0 W/m² | - |
| 1788018170 | 28.33° C | 82% | 1010.7 hPa | 0 mm | 0.45 m/s, 259° | 0 W/m² | - |
| 1788018109 | 28.33° C | 82% | 1011 hPa | 0 mm | 0.45 m/s, 201° | 0 W/m² | - |
| 1788018049 | 28.33° C | 82% | 1010.8 hPa | 0 mm | 1.79 m/s, 118° | 0 W/m² | - |
| 1788017987 | 28.33° C | 82% | 1010.9 hPa | 0 mm | 0.89 m/s, 197° | 0 W/m² | - |
| 1788017926 | 28.33° C | 82% | 1010.9 hPa | 0 mm | 0.89 m/s, 265° | 0 W/m² | - |
| 1788017865 | 28.33° C | 82% | 1010.9 hPa | 0 mm | 0.45 m/s, 164° | 0 W/m² | - |
| 1788017805 | 28.33° C | 82% | 1011 hPa | 0 mm | 1.34 m/s, 290° | 0 W/m² | - |
| 1788017744 | 28.33° C | 83% | 1011 hPa | 0 mm | 0.89 m/s, 216° | 0 W/m² | - |
| 1788017682 | 28.33° C | 83% | 1010.9 hPa | 0 mm | 0.89 m/s, 235° | 0 W/m² | - |
| 1788017621 | 28.33° C | 82% | 1010.8 hPa | 0 mm | 0.45 m/s, 211° | 0 W/m² | - |
| 1788017560 | 28.33° C | 83% | 1010.7 hPa | 0 mm | 0.89 m/s, 308° | 0 W/m² | - |
| 1788017499 | 28.33° C | 83% | 1010.9 hPa | 0 mm | 0.89 m/s, 226° | 0 W/m² | - |
| 1788017438 | 28.33° C | 83% | 1010.8 hPa | 0 mm | 2.24 m/s, 224° | 0 W/m² | - |
| 1788017377 | 28.33° C | 83% | 1010.7 hPa | 0 mm | 2.68 m/s, 252° | 0 W/m² | - |
| 1788017316 | 28.33° C | 83% | 1010.8 hPa | 0 mm | 1.34 m/s, 205° | 0 W/m² | - |
| 1788017255 | 28.33° C | 83% | 1010.5 hPa | 0 mm | 0.89 m/s, 247° | 0 W/m² | - |
| 1788017194 | 28.33° C | 83% | 1010.8 hPa | 0 mm | 0.89 m/s, 229° | 0 W/m² | - |
| 1788017133 | 28.33° C | 83% | 1010.6 hPa | 0 mm | 0.45 m/s, 227° | 0 W/m² | - |
| 1788017072 | 28.33° C | 83% | 1010.6 hPa | 0 mm | 0.89 m/s, 245° | 0 W/m² | - |
| 1788017012 | 28.33° C | 83% | 1010.7 hPa | 0 mm | 0.89 m/s, 315° | 0 W/m² | - |
| 1788016950 | 28.33° C | 83% | 1010.6 hPa | 0 mm | 0.45 m/s, 316° | 0 W/m² | - |
| 1788016889 | 28.33° C | 83% | 1010.6 hPa | 0 mm | 0.45 m/s, 262° | 0 W/m² | - |
| 1788016829 | 28.33° C | 83% | 1010.6 hPa | 0 mm | 1.34 m/s, 232° | 0 W/m² | - |
| 1788016767 | 28.33° C | 83% | 1010.6 hPa | 0 mm | 0.45 m/s, 296° | 0 W/m² | - |
* Rain latest hour (hover to see other rain measurements)
** Current wind speed in m/s (hover to see current wind gust speed)